High Desert Yearling Classic - 10 Miles South Hills

Station: South Hills 10 Miles - T Race

Distance: 10 Miles

Release: 15-Apr-2019 13:20

Weather Release:    Arrival:

Wind at Release:     Wind at Arrival:

Temp at Release: °    Temp at Arrival: °

Lofts: 104

Birds: 458

Clocked: 458

Mostly Cloudy ! Have More rain in forecast!
Drops Pos Breeder Pigeon Name Color Sex Ent Arrival Speed To Win Eligible
1 Joe Zarachowicz - MD 1691-IF18-CCC BB H 1 13:34:30.21 1213.500 00:00:00 Yes
2 Prairie Gold Loft - CO 8293-AU18-FI BBPD H 1 13:34:47.11 1190.382 00:00:17 Yes
3 Zonnak Family Loft - MD 0398-AU18-DEL BC H 1 13:34:48.67 1188.293 00:00:18 Yes
4 Lowies Loft - ID 18588-AU18-LOW BB H 1 13:34:51.89 1184.003 00:00:22 Yes
5 Wise Loft - IL 7172-AU18-CHI BBPD H 1 13:34:53.55 1181.803 00:00:23 Yes
6 Marian Taloi - OR 30837-AU18-AA BC H 1 13:34:53.69 1181.618 00:00:23 Yes
7 Ilier Mesa - FL 5277-AU18-JEDD BB H 1 13:34:53.95 1181.274 00:00:24 Yes
8 Powerstroke Loft - UT 0143-AU18-PS RRSP H 1 13:34:55.76 1178.887 00:00:26 Yes
9 Powerstroke Loft - UT 0363-AU18-PS BC H 2 13:34:55.95 1178.637 00:00:26 Yes
10 Keyways - OR 15767-AU18-JEDD BC H 1 13:34:55.98 1178.598 00:00:26 Yes
11 Rocky Mountain Racing - UT 18799-AU18-RMR BB H 1 13:34:55.99 1178.585 00:00:26 Yes
12 Bieche-Stevenson - CA 8452-AU18-BIE BLK H 1 13:34:56.43 1178.006 00:00:26 Yes
13 Carini / Codd - OR 1851-AU18-DNT BB H 1 13:34:56.84 1177.468 00:00:27 Yes
14 Eagle Ridge Lofts - WY 18019-AU18-EAGL WTSP H 1 13:34:58.28 1175.580 00:00:28 Yes
15 Gmpineda 9 Loft - CA 38991-AU18-JEDD TETANU SLT H 1 13:34:59.06 1174.560 00:00:29 Yes
16 Mario Rodriguez - AZ 48923-AU18-ARPU BB H 1 13:34:59.90 1173.464 00:00:30 Yes
17 Lazy A C Loft - IN 0298-AU18-LAZY BB H 1 13:35:00.39 1172.825 00:00:30 Yes
18 Naylor Spring Syndicate Bc - BC 3264-CU18-PMTN BC H 1 13:35:00.50 1172.682 00:00:30 Yes
19 Realdeal Loft - NE 4212-AU18-CIRP BC H 1 13:35:01.74 1171.069 00:00:32 Yes
20 Danny Lum - HI 8871-AU18-NIC BB H 1 13:35:02.76 1169.746 00:00:33 Yes
21 Jones Boys - UT 0163-AU18-SLI 8673x1651 BC H 1 13:35:02.93 1169.526 00:00:33 Yes
22 Gmpineda 9 Loft - CA 38972-AU18-JEDD NUNU BC H 2 13:35:03.33 1169.008 00:00:33 Yes
23 Silver Dollar Loft - CO 0096-AU18-SD BB H 1 13:35:03.89 1168.284 00:00:34 Yes
24 Scott/Carol Team - UT 0012-AU18-RW BB H 1 13:35:04.50 1167.496 00:00:34 Yes
25 P N W Challenge - ID 0152-AU18-PNWC PAIR#1 BBWF H 1 13:35:05.51 1166.194 00:00:35 Yes
26 Terrace Loft - NJ 0658-AU18-ATS BB C 1 13:35:05.97 1165.602 00:00:36 Yes
27 ** J-Ireneo Loft ** - CA 4261-AU18-JEDD “ Boundless “ BB H 1 13:35:06.93 1164.368 00:00:37 Yes
28 Team Elite - IL 0608-AU18-ELIT BB H 1 13:35:07.15 1164.085 00:00:37 Yes
29 Joe Zarachowicz - MD 1677-IF18-CCC BB H 2 13:35:07.17 1164.060 00:00:37 Yes
30 Haack Loft - CA 10399-AU18-JEDD DC H 1 13:35:07.59 1163.521 00:00:37 Yes
31 ** J-Ireneo Loft ** - CA 4259-AU18-JEDD “ In The Mix “ BB H 2 13:35:07.68 1163.406 00:00:37 Yes
32 Twin Loft & Joe - MD 82446-IF18-BWI BC H 1 13:35:08.05 1162.932 00:00:38 Yes
33 Silver Dollar Loft - CO 0026-AU18-SD MLY H 2 13:35:08.26 1162.663 00:00:38 Yes
34 Rocky Mountain Racing - UT 18625-AU18-RMR BB H 2 13:35:08.74 1162.049 00:00:39 Yes
35 Triple P Racers - WI 0987-AU18-RRR DC H 1 13:35:09.63 1160.912 00:00:39 Yes
36 B S Syndicate - IL 0034-AU18-BEKO Shango African God BB H 1 13:35:09.79 1160.707 00:00:40 Yes
37 Silver Dollar Loft - CO 0083-AU18-SD BCSP H 3 13:35:10.70 1159.548 00:00:40 Yes
38 Prairie Gold Loft - CO 8484-AU18-PAI BCPD H 2 13:35:11.31 1158.771 00:00:41 Yes
39 Joe Carini - OR 1836-AU18-CAR BBSP H 1 13:35:11.33 1158.746 00:00:41 Yes
40 Ruybal Family Loft - CO 0320-AU18-POP BB H 1 13:35:12.38 1157.412 00:00:42 Yes
41 Twin Loft & Joe - MD 82444-IF18-BWI BB H 2 13:35:13.37 1156.158 00:00:43 Yes
42 Silver Dollar Loft - CO 0084-AU18-SD BBSP H 4 13:35:14.03 1155.323 00:00:44 Yes
43 Marian Taloi - OR 42255-AU18-AA BB H 2 13:35:14.52 1154.704 00:00:44 Yes
44 Joe Zarachowicz - MD 1628-IF18-CCC BC H 3 13:35:14.84 1154.300 00:00:45 Yes
45 Wise Loft - IL 7168-AU18-CHI BB H 2 13:35:14.89 1154.237 00:00:45 Yes
46 Mario Rodriguez - AZ 48921-AU18-ARPU SLT H 2 13:35:15.26 1153.771 00:00:45 Yes
47 Mario Rodriguez - AZ 48910-AU18-ARPU BB H 3 13:35:15.96 1152.889 00:00:46 Yes
48 Powerstroke Loft - UT 0144-AU18-PS BC H 3 13:35:16.12 1152.687 00:00:46 Yes
49 Valley Lofts - PA 0482-IF18-HBG BC H 1 13:35:16.14 1152.662 00:00:46 Yes
50 Venn Family Loft - WY 18416-AU18-VENN BC H 1 13:35:16.75 1151.895 00:00:47 Yes
51 Scott/Carol Team - UT 0018-AU18-RW BB H 2 13:35:17.05 1151.518 00:00:47 Yes
52 Powerstroke Loft - UT 0135-AU18-PS BCWF H 4 13:35:17.62 1150.803 00:00:47 Yes
53 Haack Loft - CA 10390-AU18-JEDD BB H 2 13:35:17.98 1150.352 00:00:48 Yes
54 El Dorado Loft - TX 0168-AU18-TEX BB H 1 13:35:18.95 1149.138 00:00:49 Yes
55 Silver Dollar Loft - CO 0099-AU18-SD BBSP H 5 13:35:19.29 1148.713 00:00:49 Yes
56 Steve Beier - AZ 10852-AU18-JEDD BC H 1 13:35:19.96 1147.876 00:00:50 Yes
57 Powerstroke Loft - UT 0169-AU18-PS BC H 5 13:35:20.36 1147.377 00:00:50 Yes
58 Scott / Morrison - UT 0023-AU18-RW BB H 1 13:35:20.71 1146.941 00:00:50 Yes
59 Lazy A C Loft - IN 0308-AU18-LAZY DC H 2 13:35:21.57 1145.871 00:00:51 Yes
60 Bob Lehman - PA 0463-IF18-PGC BB H 1 13:35:21.60 1145.833 00:00:51 Yes
61 Joe Carini - OR 1832-AU18-CAR BB H 2 13:35:22.18 1145.113 00:00:52 Yes
62 B S Syndicate - IL 0060-AU18-BEKO Uživancija BB H 2 13:35:22.61 1144.579 00:00:52 Yes
63 Lazy A C Loft - IN 0288-AU18-LAZY BB H 3 13:35:23.09 1143.984 00:00:53 Yes
64 Valley Lofts - PA 0484-IF18-HBG BB H 2 13:35:23.24 1143.798 00:00:53 Yes
65 Scott/Carol Team - UT 0016-AU18-RW BBSP H 3 13:35:23.68 1143.253 00:00:53 Yes
66 Bieche-Stevenson - CA 8472-AU18-BIE BB H 2 13:35:24.55 1142.177 00:00:54 Yes
67 Keyways - OR 15769-AU18-JEDD BB H 2 13:35:24.87 1141.782 00:00:55 Yes
68 Fly & Criddle - ID 18101-AU18-RMR BC H 1 13:35:24.88 1141.770 00:00:55 Yes
69 Kenneth Lum Lee - HI 0024-AU18-FIA BC H 1 13:35:25.90 1140.512 00:00:56 Yes
70 Callahan Loft - MO 0368-AU18-AA BB H 1 13:35:27.55 1138.483 00:00:57 Yes
71 Haack Loft - CA 10396-AU18-JEDD PN H 3 13:35:28.16 1137.735 00:00:58 Yes
72 Jones Boys - UT 0693-AU18-SLI 1677x4099 BCWF H 2 13:35:28.65 1137.135 00:00:58 Yes
73 Aimhigh Loft - CA 0840-AU18-FMT AIM-616401444 BB H 1 13:35:28.70 1137.073 00:00:58 Yes
74 Powerstroke Loft - UT 0136-AU18-PS BB H 6 13:35:29.74 1135.801 00:01:00 Yes
75 Wise Loft - IL 7166-AU18-CHI BBWF H 3 13:35:30.06 1135.411 00:01:00 Yes
76 Fly & Criddle - ID 18104-AU18-RMR BBSP H 2 13:35:30.48 1134.898 00:01:00 Yes
77 Team Codd / Brink - OR 1874-AU18-DNT BC H 1 13:35:31.47 1133.692 00:01:01 Yes
78 Danny Lum - HI 8874-AU18-NIC BC H 2 13:35:31.52 1133.631 00:01:01 Yes
79 Bob Bostwick - CA 0839-AU18-COCO BB H 1 13:35:31.84 1133.242 00:01:02 Yes
80 P N W Challenge - ID 0796-AU18-IDA Pair#J BB H 2 13:35:31.96 1133.096 00:01:02 Yes
81 Bieche-Stevenson - CA 8468-AU18-BIE BB C 3 13:35:32.35 1132.622 00:01:02 Yes
82 B S Syndicate - IL 0017-AU18-BEKO Kawaii BB H 3 13:35:32.84 1132.027 00:01:03 Yes
83 Spirit In The Sky - IL 0205-AU18-LCC BC C 1 13:35:33.34 1131.420 00:01:03 Yes
84 Kwan Loft - CA 6436-AU18-HP BBSP H 1 13:35:34.09 1130.512 00:01:04 Yes
85 Chick Clayton - ID 0805-AU18-IDA BB H 1 13:35:34.92 1129.508 00:01:05 Yes
86 Racing Pigeon Mall - WA 0821-AU18-RPM BB H 1 13:35:35.05 1129.351 00:01:05 Yes
87 Fly & Criddle - ID 18107-AU18-RMR BB H 3 13:35:37.26 1126.688 00:01:07 Yes
88 Scott/Carol Team - UT 0017-AU18-RW BB H 4 13:35:37.96 1125.848 00:01:08 Yes
89 Thunder Birds/Rodriguez Breeding Loft - TX 18437-AU18-WIN John's Figo BB H 1 13:35:38.26 1125.488 00:01:08 Yes
90 Pelican Loft - ID 1855-AU18-PL BBWF H 1 13:35:38.39 1125.332 00:01:08 Yes
91 Team Elite - IL 0682-AU18-ELIT BB H 2 13:35:38.41 1125.308 00:01:08 Yes
92 P N W Challenge - ID 0147-AU18-PNWC PAIR#22 BCWF H 3 13:35:39.22 1124.337 00:01:09 Yes
93 Spirit In The Sky - IL 0218-AU18-LCC BB C 2 13:35:39.65 1123.823 00:01:09 Yes
94 Ed Kehl - UT 1719-AU18-WFA BB H 1 13:35:40.02 1123.380 00:01:10 Yes
95 Yendez Loft - TX 0230-AU18-YEND PENC H 1 13:35:40.84 1122.401 00:01:11 Yes
96 Huan Qiu Zhang - NC 0063-AU18-HQZ BB H 1 13:35:40.85 1122.389 00:01:11 Yes
97 Joe Zarachowicz - MD 1689-IF18-CCC BB H 4 13:35:40.90 1122.330 00:01:11 Yes
98 Silver Dollar Loft - CO 0088-AU18-SD BB H 6 13:35:41.51 1121.603 00:01:11 Yes
99 Mike Beam - KS 80689-AU18-TOP BB H 1 13:35:41.80 1121.257 00:01:12 Yes
100 Huan Qiu Zhang - NC 0067-AU18-HQZ BBWF H 2 13:35:42.40 1120.543 00:01:12 Yes

There are 458 bird records

Note: These Race Results are unofficial and subject to change until verified by the Race Committee and declared final.